• In Uzbekistan
  • List of Countries
  • For 7 days
  • Water Temperature
  • Satellite Maps
  • Weather Map
  • Weather Widgets
  • user-avatar
    Login

    Hourly Weather Patmos

    Today, 16 December, Saturday

    Time Temperature Precipitation Wind Pressure Humidity
    00:00 +15°C° 0.1 mm 8 mps 761 mmHg 87%
    01:00 +13°C° 0.1 mm 8 mps 761 mmHg 87%
    02:00 +13°C° 0.1 mm 8 mps 761 mmHg 87%
    03:00 +14°C° 0.1 mm 7 mps 761 mmHg 87%
    04:00 +14°C° 0.1 mm 7 mps 761 mmHg 87%
    05:00 +14°C° 0.1 mm 7 mps 761 mmHg 87%
    06:00 +14°C° 0 mm 7 mps 761 mmHg 88%
    07:00 +14°C° 0 mm 7 mps 761 mmHg 89%
    08:00 +12°C° 0 mm 7 mps 761 mmHg 91%
    09:00 +15°C° 0 mm 8 mps 761 mmHg 84%
    10:00 +16°C° 0 mm 8 mps 761 mmHg 77%
    11:00 +18°C° 0 mm 9 mps 761 mmHg 70%
    12:00 +18°C° 0 mm 9 mps 761 mmHg 68%
    13:00 +18°C° 0 mm 9 mps 760 mmHg 66%
    14:00 +19°C° 0 mm 9 mps 760 mmHg 65%
    15:00 +18°C° 0 mm 9 mps 760 mmHg 71%
    16:00 +16°C° 0 mm 9 mps 760 mmHg 78%
    17:00 +15°C° 0 mm 9 mps 760 mmHg 85%
    18:00 +15°C° 0.3 mm 9 mps 760 mmHg 86%
    19:00 +15°C° 0.3 mm 9 mps 760 mmHg 88%
    20:00 +15°C° 0.3 mm 9 mps 760 mmHg 89%
    21:00 +14°C° 0.6 mm 10 mps 760 mmHg 89%
    22:00 +14°C° 0.6 mm 10 mps 760 mmHg 89%
    23:00 +14°C° 0.6 mm 10 mps 760 mmHg 89%

    Tomorrow, 17 December, Sunday

    Time Temperature Precipitation Wind Pressure Humidity
    00:00 +14°C° 0 mm 11 mps 760 mmHg 90%
    01:00 +13°C° 0 mm 11 mps 760 mmHg 91%
    02:00 +13°C° 0 mm 11 mps 760 mmHg 92%
    03:00 +13°C° 0.1 mm 11 mps 759 mmHg 92%
    04:00 +13°C° 0.1 mm 12 mps 759 mmHg 92%
    05:00 +13°C° 0.1 mm 12 mps 758 mmHg 92%
    06:00 +13°C° 0.1 mm 12 mps 758 mmHg 91%
    07:00 +14°C° 0.1 mm 12 mps 758 mmHg 90%
    08:00 +14°C° 0.1 mm 12 mps 758 mmHg 90%
    09:00 +15°C° 0.1 mm 12 mps 758 mmHg 84%
    10:00 +17°C° 0.1 mm 12 mps 758 mmHg 78%
    11:00 +18°C° 0.1 mm 11 mps 758 mmHg 72%
    12:00 +18°C° 0.2 mm 11 mps 758 mmHg 72%
    13:00 +18°C° 0.2 mm 11 mps 758 mmHg 71%
    14:00 +18°C° 0.2 mm 10 mps 758 mmHg 71%
    15:00 +18°C° 0.5 mm 10 mps 758 mmHg 76%
    16:00 +17°C° 0.5 mm 9 mps 758 mmHg 80%
    17:00 +16°C° 0.5 mm 8 mps 758 mmHg 84%
    18:00 +16°C° 0.6 mm 8 mps 758 mmHg 85%
    19:00 +15°C° 0.6 mm 7 mps 759 mmHg 86%
    20:00 +15°C° 0.6 mm 7 mps 759 mmHg 88%
    21:00 +15°C° 0.5 mm 7 mps 760 mmHg 89%
    22:00 +15°C° 0.5 mm 7 mps 760 mmHg 90%
    23:00 +14°C° 0.5 mm 6 mps 760 mmHg 91%

    Day after tomorrow, 18 December, Monday

    Time Temperature Precipitation Wind Pressure Humidity
    00:00 +14°C° 0.2 mm 6 mps 760 mmHg 92%
    01:00 +14°C° 0.2 mm 6 mps 760 mmHg 92%
    02:00 +13°C° 0.2 mm 6 mps 760 mmHg 93%
    03:00 +13°C° 0 mm 6 mps 760 mmHg 93%
    04:00 +13°C° 0 mm 5 mps 760 mmHg 93%
    05:00 +13°C° 0 mm 5 mps 760 mmHg 92%
    06:00 +13°C° 0 mm 5 mps 760 mmHg 92%
    07:00 +13°C° 0 mm 5 mps 761 mmHg 92%
    08:00 +13°C° 0 mm 5 mps 761 mmHg 92%
    09:00 +14°C° 0 mm 5 mps 761 mmHg 84%
    10:00 +15°C° 0 mm 5 mps 761 mmHg 76%
    11:00 +16°C° 0 mm 5 mps 761 mmHg 68%
    12:00 +16°C° 0 mm 5 mps 761 mmHg 66%
    13:00 +16°C° 0 mm 5 mps 761 mmHg 64%
    14:00 +17°C° 0 mm 4 mps 761 mmHg 61%
    15:00 +15°C° 0 mm 4 mps 760 mmHg 67%
    16:00 +14°C° 0 mm 4 mps 760 mmHg 73%
    17:00 +13°C° 0 mm 4 mps 760 mmHg 79%
    18:00 +12°C° 0.1 mm 4 mps 761 mmHg 82%
    19:00 +12°C° 0.1 mm 4 mps 761 mmHg 84%
    20:00 +12°C° 0.1 mm 4 mps 761 mmHg 87%
    21:00 +12°C° 0 mm 4 mps 761 mmHg 85%
    22:00 +11°C° 0 mm 3 mps 761 mmHg 84%
    23:00 +11°C° 0 mm 3 mps 762 mmHg 82%

    19 December, Tuesday

    Time Temperature Precipitation Wind Pressure Humidity
    00:00 +11°C° 0.1 mm 3 mps 762 mmHg 82%
    01:00 +11°C° 0.1 mm 3 mps 762 mmHg 82%
    02:00 +11°C° 0.1 mm 3 mps 762 mmHg 82%
    03:00 +11°C° 0.2 mm 4 mps 762 mmHg 84%
    04:00 +10°C° 0.2 mm 4 mps 762 mmHg 87%
    05:00 +10°C° 0.2 mm 4 mps 762 mmHg 90%
    06:00 +10°C° 0.2 mm 4 mps 763 mmHg 90%
    07:00 +8°C° 0.2 mm 4 mps 763 mmHg 90%
    08:00 +8°C° 0.2 mm 4 mps 764 mmHg 90%
    09:00 +11°C° 0 mm 4 mps 764 mmHg 83%
    10:00 +12°C° 0 mm 4 mps 765 mmHg 75%
    11:00 +13°C° 0 mm 4 mps 765 mmHg 68%
    12:00 +14°C° 0 mm 5 mps 765 mmHg 65%
    13:00 +14°C° 0 mm 5 mps 765 mmHg 62%
    14:00 +14°C° 0 mm 5 mps 764 mmHg 58%
    15:00 +13°C° 0 mm 6 mps 765 mmHg 62%
    16:00 +11°C° 0 mm 6 mps 765 mmHg 66%
    17:00 +10°C° 0 mm 6 mps 765 mmHg 70%
    18:00 +10°C° 0 mm 6 mps 765 mmHg 72%
    19:00 +9°C° 0 mm 7 mps 766 mmHg 74%
    20:00 +8°C° 0 mm 7 mps 766 mmHg 76%
    21:00 +8°C° 0 mm 7 mps 766 mmHg 79%
    22:00 +6°C° 0 mm 7 mps 766 mmHg 81%
    23:00 +6°C° 0 mm 7 mps 767 mmHg 83%

    20 December, Wednesday

    Time Temperature Precipitation Wind Pressure Humidity
    00:00 +5°C° 0 mm 8 mps 767 mmHg 85%
    01:00 +5°C° 0 mm 8 mps 767 mmHg 86%
    02:00 +3°C° 0 mm 9 mps 767 mmHg 87%
    03:00 +3°C° 0 mm 9 mps 767 mmHg 88%
    04:00 +2°C° 0 mm 9 mps 767 mmHg 89%
    05:00 +2°C° 0 mm 9 mps 767 mmHg 90%
    06:00 +2°C° 0 mm 9 mps 767 mmHg 90%
    07:00 +1°C° 0 mm 9 mps 767 mmHg 90%
    08:00 +1°C° 0 mm 9 mps 768 mmHg 90%
    09:00 +3°C° 0 mm 9 mps 768 mmHg 83%
    10:00 +5°C° 0 mm 9 mps 768 mmHg 75%
    11:00 +6°C° 0 mm 8 mps 768 mmHg 68%
    12:00 +7°C° 0 mm 8 mps 768 mmHg 64%
    13:00 +8°C° 0 mm 9 mps 767 mmHg 61%
    14:00 +8°C° 0 mm 9 mps 767 mmHg 57%
    15:00 +7°C° 0 mm 9 mps 767 mmHg 60%
    16:00 +6°C° 0 mm 9 mps 767 mmHg 64%
    17:00 +5°C° 0 mm 9 mps 767 mmHg 67%
    18:00 +3°C° 0 mm 9 mps 767 mmHg 69%
    19:00 +3°C° 0 mm 9 mps 768 mmHg 71%
    20:00 +2°C° 0 mm 9 mps 768 mmHg 73%
    21:00 +1°C° 0 mm 8 mps 768 mmHg 75%
    22:00 +1°C° 0 mm 8 mps 768 mmHg 77%
    23:00 0°C° 0 mm 8 mps 768 mmHg 79%

    21 December, Thursday

    Time Temperature Precipitation Wind Pressure Humidity
    00:00 0°C° 0 mm 8 mps 768 mmHg 80%
    01:00 0°C° 0 mm 8 mps 768 mmHg 81%
    02:00 -1°C° 0 mm 8 mps 768 mmHg 83%
    03:00 -1°C° 0 mm 8 mps 767 mmHg 84%
    04:00 -1°C° 0 mm 8 mps 767 mmHg 84%
    05:00 -1°C° 0 mm 8 mps 767 mmHg 85%
    06:00 -1°C° 0 mm 8 mps 767 mmHg 84%
    07:00 -1°C° 0 mm 8 mps 767 mmHg 82%
    08:00 -1°C° 0 mm 8 mps 767 mmHg 80%
    09:00 +1°C° 0 mm 8 mps 767 mmHg 73%
    10:00 +2°C° 0 mm 8 mps 767 mmHg 65%
    11:00 +4°C° 0 mm 8 mps 767 mmHg 58%
    12:00 +5°C° 0 mm 9 mps 767 mmHg 56%
    13:00 +6°C° 0 mm 10 mps 767 mmHg 53%
    14:00 +6°C° 0 mm 10 mps 766 mmHg 51%
    15:00 +4°C° 0 mm 11 mps 766 mmHg 55%
    16:00 +3°C° 0 mm 11 mps 767 mmHg 60%
    17:00 +2°C° 0 mm 12 mps 767 mmHg 64%
    18:00 +2°C° 0 mm 12 mps 767 mmHg 67%
    19:00 0°C° 0 mm 12 mps 767 mmHg 71%
    20:00 -1°C° 0 mm 12 mps 767 mmHg 74%
    21:00 -1°C° 0 mm 12 mps 768 mmHg 76%
    22:00 -1°C° 0 mm 11 mps 768 mmHg 78%
    23:00 -2°C° 0 mm 11 mps 768 mmHg 80%
    Show more

    XHprof extension not loaded